Flag for Germany Weather past 2 weeks in Wittlich, Rhineland-Palatinate, Germany

Now
52 °F

Scattered clouds.


Feels Like: 52 °F
Forecast: 46 / 63 °F
Wind: 2 mph from West

Location: Spangdahlem

Current Time: Sep 3, 2015 at 9:25:27 AM

Latest Report: Sep 3, 2015 at 8:58 AM


Visibility: N/A

Pressure: 29.98 "Hg

Humidity: 100%

Dew point: 52 °F

Location of WittlichLocation

Historic Weather in Wittlich — Graph

°F

Wittlich temperature yesterday

Maximum temperature yesterday: 67 °F (at 2:58 PM)
Minimum temperature yesterday: 48 °F (at 7:01 AM)
Average temperature yesterday: 56 °F

Past Weeks' High & Low Weather Summary

 TemperatureHumidityPressure
High87 °F (Aug 30, 5:58 PM)100% (Aug 23, 7:04 PM)30.23 "Hg (Aug 23, 7:04 PM)
Low47 °F (Aug 20, 5:58 AM)31% (Aug 31, 4:58 PM)29.58 "Hg (Aug 24, 12:58 PM)
Average64 °F76%29.96 "Hg
* Reported Aug 19 7:58 AM — Sep 3 7:58 AM, Wittlich, Weather by CustomWeather, © 2015

Note: Actual official high and low records may vary slightly from our data, if they occured in-between our weather recording intervals... More about our weather records

Advertising

Wittlich weather history for previous 24 hours

 ConditionsComfort  
Time TempWeatherWind HumidityBarometerVisibility
7:58 AM
Thu, Sep 3
51 °FOvercast.No wind99%29.98 "HgN/A
6:58 AM50 °FMostly cloudy.No wind98%29.97 "HgN/A
6:02 AM50 °FFog.1 mph100%29.97 "Hg4 mi
5:58 AM50 °FFog.3 mph98%29.97 "Hg6 mi
4:58 AM50 °FOvercast.2 mph100%29.98 "HgN/A
3:58 AM49 °FPassing clouds.2 mph99%29.99 "HgN/A
2:58 AM48 °FClear.No wind100%29.99 "HgN/A
1:58 AM51 °FPassing clouds.2 mph96%30.00 "HgN/A
12:58 AM50 °FClear.5 mph94%30.01 "HgN/A
11:58 PM
Wed, Sep 2
51 °FClear.3 mph90%30.01 "HgN/A
10:58 PM54 °FClear.3 mph78%29.97 "HgN/A
9:58 PM57 °FPassing clouds.2 mph71%30.00 "HgN/A
8:58 PM59 °FSunny.No wind65%29.98 "HgN/A
7:58 PM62 °FScattered clouds.5 mph56%29.97 "HgN/A
6:58 PM64 °FSunny.2 mph56%29.96 "HgN/A
5:58 PM65 °FSunny.6 mph57%29.96 "HgN/A
4:58 PM65 °FPassing clouds.No wind60%29.97 "HgN/A
3:58 PM62 °FPartly sunny.7 mph65%29.98 "HgN/A
2:58 PM67 °FScattered clouds.7 mph57%29.98 "HgN/A
1:58 PM64 °FSunny.7 mph60%30.00 "HgN/A
12:58 PM60 °FPassing clouds.3 mph100%30.01 "HgN/A
11:58 AM55 °FPartly sunny.No wind100%30.07 "HgN/A
10:58 AM53 °FMostly cloudy.1 mph100%30.04 "HgN/A
10:46 AM54 °FFog.1 mph100%30.07 "Hg3 mi
Weather by CustomWeather, © 2015

See weather overviewHow to use our weather pages